When you browse on this site, cookies collect data to enhance your experience and personalize the content and advertising you see.
Visit our Privacy Policy to learn more. By continuing to use the site, you agree to this use of cookies and data.
  • In Österreich
  • Länderverzeichnis
  • Für 7 Tage
  • Wassertemperatur
  • Wetterkarte
  • News
  • Widgets
  • user-avatar
    Anmelden

    Stündliche Wetter Lejriya

    Heute, 7 April, Dienstag

    Zeit Temperatur Niederschläge Wind Luftdruck Luftfeuchtigkeit
    00:00 +14°C° 0.1 mm 3 m/S 756 mmHg 97%
    01:00 +16°C° 0.1 mm 3 m/S 756 mmHg 97%
    02:00 +16°C° 0.1 mm 3 m/S 756 mmHg 97%
    03:00 +16°C° 0.1 mm 3 m/S 756 mmHg 97%
    04:00 +14°C° 0.1 mm 3 m/S 756 mmHg 97%
    05:00 +14°C° 0.1 mm 3 m/S 757 mmHg 97%
    06:00 +16°C° 0 mm 3 m/S 757 mmHg 94%
    07:00 +17°C° 0 mm 3 m/S 757 mmHg 91%
    08:00 +18°C° 0 mm 3 m/S 757 mmHg 88%
    09:00 +19°C° 0.1 mm 4 m/S 758 mmHg 81%
    10:00 +20°C° 0.1 mm 4 m/S 758 mmHg 75%
    11:00 +22°C° 0.1 mm 4 m/S 758 mmHg 68%
    12:00 +22°C° 0.1 mm 4 m/S 758 mmHg 67%
    13:00 +22°C° 0.1 mm 4 m/S 758 mmHg 65%
    14:00 +23°C° 0.1 mm 4 m/S 757 mmHg 64%
    15:00 +22°C° 0 mm 4 m/S 757 mmHg 68%
    16:00 +21°C° 0 mm 3 m/S 757 mmHg 72%
    17:00 +20°C° 0 mm 3 m/S 757 mmHg 76%
    18:00 +18°C° 0 mm 2 m/S 758 mmHg 82%
    19:00 +16°C° 0 mm 1 m/S 758 mmHg 88%
    20:00 +14°C° 0 mm 1 m/S 759 mmHg 94%
    21:00 +14°C° 0 mm 1 m/S 759 mmHg 94%
    22:00 +14°C° 0 mm 1 m/S 759 mmHg 95%
    23:00 +14°C° 0 mm 1 m/S 759 mmHg 95%

    Morgen, 8 April, Mittwoch

    Zeit Temperatur Niederschläge Wind Luftdruck Luftfeuchtigkeit
    00:00 +14°C° 0 mm 1 m/S 758 mmHg 95%
    01:00 +14°C° 0 mm 1 m/S 758 mmHg 96%
    02:00 +14°C° 0 mm 1 m/S 758 mmHg 96%
    03:00 +14°C° 0 mm 2 m/S 758 mmHg 97%
    04:00 +14°C° 0 mm 2 m/S 758 mmHg 97%
    05:00 +14°C° 0 mm 2 m/S 758 mmHg 97%
    06:00 +15°C° 0 mm 2 m/S 758 mmHg 94%
    07:00 +16°C° 0 mm 2 m/S 758 mmHg 90%
    08:00 +17°C° 0 mm 2 m/S 758 mmHg 87%
    09:00 +17°C° 0.1 mm 2 m/S 758 mmHg 88%
    10:00 +17°C° 0.1 mm 2 m/S 758 mmHg 88%
    11:00 +18°C° 0.1 mm 1 m/S 758 mmHg 89%
    12:00 +18°C° 0 mm 1 m/S 758 mmHg 89%
    13:00 +18°C° 0 mm 1 m/S 758 mmHg 89%
    14:00 +18°C° 0 mm 1 m/S 758 mmHg 90%
    15:00 +18°C° 0 mm 1 m/S 757 mmHg 89%
    16:00 +18°C° 0 mm 1 m/S 757 mmHg 89%
    17:00 +16°C° 0 mm 0 m/S 757 mmHg 89%
    18:00 +16°C° 0 mm 0 m/S 757 mmHg 89%
    19:00 +16°C° 0 mm 0 m/S 758 mmHg 89%
    20:00 +15°C° 0 mm 0 m/S 758 mmHg 89%
    21:00 +16°C° 0 mm 1 m/S 758 mmHg 89%
    22:00 +16°C° 0 mm 1 m/S 758 mmHg 89%
    23:00 +16°C° 0 mm 1 m/S 757 mmHg 89%

    übermorgen, 9 April, Donnerstag

    Zeit Temperatur Niederschläge Wind Luftdruck Luftfeuchtigkeit
    00:00 +16°C° 0.4 mm 1 m/S 757 mmHg 91%
    01:00 +15°C° 0.4 mm 1 m/S 757 mmHg 93%
    02:00 +15°C° 0.4 mm 1 m/S 756 mmHg 95%
    03:00 +15°C° 0.9 mm 1 m/S 756 mmHg 96%
    04:00 +15°C° 0.9 mm 1 m/S 756 mmHg 96%
    05:00 +15°C° 0.9 mm 1 m/S 756 mmHg 97%
    06:00 +15°C° 0.2 mm 1 m/S 756 mmHg 96%
    07:00 +15°C° 0.2 mm 1 m/S 757 mmHg 95%
    08:00 +15°C° 0.2 mm 1 m/S 757 mmHg 95%
    09:00 +16°C° 0 mm 1 m/S 757 mmHg 93%
    10:00 +16°C° 0 mm 1 m/S 757 mmHg 91%
    11:00 +17°C° 0 mm 2 m/S 757 mmHg 90%
    12:00 +17°C° 0.2 mm 2 m/S 757 mmHg 91%
    13:00 +18°C° 0.2 mm 1 m/S 756 mmHg 92%
    14:00 +18°C° 0.2 mm 1 m/S 756 mmHg 93%
    15:00 +18°C° 0.1 mm 1 m/S 756 mmHg 93%
    16:00 +18°C° 0.1 mm 1 m/S 756 mmHg 93%
    17:00 +16°C° 0.1 mm 0 m/S 756 mmHg 93%
    18:00 +16°C° 0 mm 1 m/S 757 mmHg 94%
    19:00 +16°C° 0 mm 1 m/S 757 mmHg 95%
    20:00 +15°C° 0 mm 1 m/S 757 mmHg 96%
    21:00 +15°C° 0 mm 1 m/S 758 mmHg 96%
    22:00 +15°C° 0 mm 1 m/S 758 mmHg 96%
    23:00 +15°C° 0 mm 1 m/S 758 mmHg 96%

    10 April, Freitag

    Zeit Temperatur Niederschläge Wind Luftdruck Luftfeuchtigkeit
    00:00 +15°C° 0 mm 1 m/S 757 mmHg 96%
    01:00 +15°C° 0 mm 1 m/S 757 mmHg 96%
    02:00 +15°C° 0 mm 1 m/S 757 mmHg 96%
    03:00 +14°C° 0 mm 0 m/S 757 mmHg 96%
    04:00 +14°C° 0 mm 0 m/S 757 mmHg 96%
    05:00 +14°C° 0 mm 0 m/S 758 mmHg 97%
    06:00 +15°C° 0.1 mm 0 m/S 758 mmHg 94%
    07:00 +16°C° 0.1 mm 0 m/S 758 mmHg 92%
    08:00 +17°C° 0.1 mm 0 m/S 758 mmHg 90%
    09:00 +19°C° 0.1 mm 1 m/S 758 mmHg 86%
    10:00 +20°C° 0.1 mm 1 m/S 758 mmHg 82%
    11:00 +21°C° 0.1 mm 1 m/S 758 mmHg 78%
    12:00 +22°C° 0.1 mm 1 m/S 758 mmHg 76%
    13:00 +21°C° 0.1 mm 2 m/S 757 mmHg 74%
    14:00 +21°C° 0.1 mm 3 m/S 757 mmHg 71%
    15:00 +20°C° 0 mm 3 m/S 757 mmHg 74%
    16:00 +20°C° 0 mm 3 m/S 757 mmHg 77%
    17:00 +19°C° 0 mm 4 m/S 757 mmHg 80%
    18:00 +17°C° 0 mm 3 m/S 757 mmHg 85%
    19:00 +16°C° 0 mm 3 m/S 757 mmHg 90%
    20:00 +15°C° 0 mm 2 m/S 758 mmHg 95%
    21:00 +14°C° 0 mm 2 m/S 758 mmHg 96%
    22:00 +14°C° 0 mm 2 m/S 758 mmHg 96%
    23:00 +14°C° 0 mm 2 m/S 758 mmHg 96%

    11 April, Samstag

    Zeit Temperatur Niederschläge Wind Luftdruck Luftfeuchtigkeit
    00:00 +13°C° 0 mm 2 m/S 757 mmHg 96%
    01:00 +13°C° 0 mm 2 m/S 757 mmHg 96%
    02:00 +13°C° 0 mm 2 m/S 756 mmHg 96%
    03:00 +13°C° 0 mm 2 m/S 756 mmHg 97%
    04:00 +13°C° 0 mm 2 m/S 756 mmHg 97%
    05:00 +13°C° 0 mm 2 m/S 756 mmHg 97%
    06:00 +15°C° 0 mm 2 m/S 756 mmHg 90%
    07:00 +17°C° 0 mm 2 m/S 756 mmHg 83%
    08:00 +18°C° 0 mm 2 m/S 757 mmHg 76%
    09:00 +20°C° 0.1 mm 2 m/S 757 mmHg 72%
    10:00 +21°C° 0.1 mm 2 m/S 756 mmHg 68%
    11:00 +24°C° 0.1 mm 2 m/S 756 mmHg 64%
    12:00 +22°C° 0.1 mm 3 m/S 756 mmHg 66%
    13:00 +22°C° 0.1 mm 3 m/S 755 mmHg 67%
    14:00 +21°C° 0.1 mm 4 m/S 755 mmHg 69%
    15:00 +20°C° 0.2 mm 3 m/S 755 mmHg 74%
    16:00 +19°C° 0.2 mm 3 m/S 755 mmHg 79%
    17:00 +18°C° 0.2 mm 2 m/S 754 mmHg 84%
    18:00 +17°C° 0.1 mm 2 m/S 754 mmHg 86%
    19:00 +16°C° 0.1 mm 2 m/S 755 mmHg 88%
    20:00 +16°C° 0.1 mm 2 m/S 755 mmHg 91%
    21:00 +15°C° 0.1 mm 1 m/S 755 mmHg 91%
    22:00 +15°C° 0.1 mm 1 m/S 754 mmHg 92%
    23:00 +15°C° 0.1 mm 1 m/S 754 mmHg 93%

    12 April, Sonntag

    Zeit Temperatur Niederschläge Wind Luftdruck Luftfeuchtigkeit
    00:00 +14°C° 0.3 mm 0 m/S 754 mmHg 94%
    01:00 +14°C° 0.3 mm 0 m/S 754 mmHg 94%
    02:00 +14°C° 0.3 mm 0 m/S 753 mmHg 95%
    03:00 +14°C° 0.4 mm 0 m/S 753 mmHg 95%
    04:00 +15°C° 0.4 mm 1 m/S 753 mmHg 95%
    05:00 +15°C° 0.4 mm 1 m/S 753 mmHg 96%
    06:00 +15°C° 0.6 mm 1 m/S 753 mmHg 95%
    07:00 +16°C° 0.6 mm 1 m/S 753 mmHg 94%
    08:00 +16°C° 0.6 mm 1 m/S 752 mmHg 93%
    09:00 +16°C° 0.5 mm 1 m/S 752 mmHg 91%
    10:00 +17°C° 0.5 mm 2 m/S 752 mmHg 89%
    11:00 +17°C° 0.5 mm 2 m/S 752 mmHg 87%
    12:00 +17°C° 0.6 mm 2 m/S 752 mmHg 89%
    13:00 +16°C° 0.6 mm 2 m/S 752 mmHg 91%
    14:00 +16°C° 0.6 mm 3 m/S 751 mmHg 93%
    15:00 +14°C° 0.3 mm 3 m/S 751 mmHg 94%
    16:00 +14°C° 0.3 mm 3 m/S 751 mmHg 95%
    17:00 +14°C° 0.3 mm 3 m/S 750 mmHg 96%
    18:00 +14°C° 0.1 mm 3 m/S 751 mmHg 96%
    19:00 +13°C° 0.1 mm 4 m/S 751 mmHg 96%
    20:00 +13°C° 0.1 mm 5 m/S 751 mmHg 96%
    21:00 +13°C° 0 mm 5 m/S 750 mmHg 95%
    22:00 +12°C° 0 mm 5 m/S 750 mmHg 95%
    23:00 +12°C° 0 mm 5 m/S 750 mmHg 94%
    Mehr zeigen